Home > Weather > Campina Grande > Past weeks

Flag for Brazil Weather for the Past 2 Weeks in Campina Grande, Paraíba, Brazil

Now
79 °F

Light rain. Partly sunny.


Feels Like: 82 °F
Forecast: 72 / 85 °F
Wind: 6 mph from Southwest

Location: Recife Aeroporto

Current Time: May 1, 2016 at 11:14:35 AM

Latest Report: May 1, 2016 at 10:00 AM


Visibility: 3 mi

Pressure: 29.95 "Hg (28.23 "Hg at 519m altitude)

Humidity: 89%

Dew Point: 75 °F

Location of Campina GrandeLocation

Historic Weather in Campina Grande — Graph

°F

Campina Grande Temperature Yesterday

Maximum temperature yesterday: 88 °F (at 12:00 PM)
Minimum temperature yesterday: 81 °F (at 1:00 AM)
Average temperature yesterday: 83 °F

High & Low Weather Summary for the Past Weeks

 TemperatureHumidityPressure
High88 °F (Apr 21, 12:00 PM)100% (Apr 16, 7:00 PM)29.98 "Hg (Apr 16, 7:00 PM)
Low41 °F (Apr 16, 7:00 PM)59% (Apr 26, 12:00 PM)29.80 "Hg (Apr 25, 3:00 PM)
Average82 °F76%29.91 "Hg
* Reported Apr 16 9:00 AM — May 1 9:00 AM, Campina Grande, Weather by CustomWeather, © 2016

Note: Actual official high and low records may vary slightly from our data, if they occured in-between our weather recording intervals... More about our weather records

Advertising

Campina Grande Weather History for the Previous 24 Hours

Scroll right to see more
 ConditionsComfort  
Time TempWeatherWind HumidityBarometerVisibility
9:00 AM
Sun, May 1
79 °FScattered showers. Partly sunny.14 mph84%29.95 "Hg6 mi
8:00 AM81 °FBroken clouds.6 mph84%29.92 "HgN/A
7:00 AM79 °FPartly sunny.6 mph89%29.92 "HgN/A
6:00 AM77 °FPassing clouds.No wind89%29.89 "HgN/A
5:00 AM77 °FPassing clouds.2 mph89%29.86 "HgN/A
4:00 AM77 °FPassing clouds.5 mph89%29.86 "HgN/A
3:00 AM77 °FPassing clouds.3 mph94%29.86 "HgN/A
2:00 AM79 °FPassing clouds.6 mph89%29.86 "HgN/A
1:00 AM81 °FPassing clouds.2 mph84%29.86 "HgN/A
12:00 AM81 °FPassing clouds.3 mph84%29.89 "HgN/A
11:00 PM
Sat, Apr 30
81 °FPassing clouds.7 mph84%29.92 "HgN/A
10:00 PM81 °FPassing clouds.7 mph84%29.92 "HgN/A
9:00 PM81 °FPassing clouds.7 mph84%29.92 "HgN/A
8:00 PM81 °FScattered showers. Passing clouds.13 mph89%29.92 "HgN/A
7:00 PM82 °FPassing clouds.12 mph74%29.89 "HgN/A
6:00 PM82 °FPassing clouds.13 mph74%29.86 "HgN/A
5:00 PM82 °FScattered clouds.13 mph74%29.86 "HgN/A
4:00 PM84 °FScattered clouds.15 mph70%29.86 "HgN/A
3:00 PM84 °FScattered clouds.16 mph70%29.86 "HgN/A
2:00 PM86 °FPassing clouds.15 mph66%29.86 "HgN/A
1:00 PM86 °FPassing clouds.15 mph62%29.89 "HgN/A
12:00 PM88 °FScattered clouds.16 mph62%29.92 "HgN/A
11:00 AM86 °FScattered clouds.15 mph70%29.92 "HgN/A
Weather by CustomWeather, © 2016

See weather overviewHow to use our weather pages